Showing default

BRITE-U UNIBRITE, 39092

Orbit data source: Space-Track

BRITE-U UNIBRITE, 39092 is an Austrian payload satellite in SSO that was launched on Mon, 25 Feb 2013 UTC via a PSLV launch vehicle from the Sirharikota (SRI). Payload-class satellites include a variety of spacecraft equipped with specific instruments for various scientific and technological missions. These include communications satellites like Starlink; space stations such as the ISS; scientific satellites like the Hubble; Earth observation satellites from companies like Planet Labs, Umbra, and HawkEye 360; GPS; miniature CubeSats for education and research; and military/defense satellites.

Loading next visibility...
Identifier
39092, 2013-009G
Orbit
SSO
Country
Flag of ATAT / ASRA
Related business
Manufacturer
UTIAS-SFL
Mission
Non-operational Amateur Astronomy
Bus & Motor
GNB, Unknown motor
Mass
7 kg wet, 7 kg dry
Launch date (UTC)
2013-02-25 (13 years ago)
Launch vehicle
PSLV
Launch site
Sirharikota (SRI)
Object type
Payload
Rocket body
Debris
Shape & HBR
Box, 0.1 m
Radar Cross Section
0.060 m², Medium (>0.1 m² and < 1m²)

Expand to show TLE details & history
Last TLE update: 1 day ago

TLE from 1 day ago
0 BRITE-U UNIBRITE
1 39092U 13009G   26094.03380812  .00000359  00000-0  13726-3 0  9991
2 39092  98.4014 275.4023 0010310  97.6018 262.6340 14.36382747686345
Epoch: 2026-04-04T00:48Z
TLE epoch observation values (Epoch: 2026-04-04T00:48:41.021Z)
Latitude
-0.00002°
Longitude
70.87199°
Altitude
774.374 km
Speed
7.466 km/s
True Right ascension
18h 21m 36s
True Declination
0° 00' 00"
Sunlit
Object was in daylight at epoch
Visualization orbit readout
Latitude
Unknown
Longitude
Unknown
Altitude
Unknown
Speed
Unknown
Apparent Right ascension
Unknown
Apparent Declination
Unknown
Sunlit
N/A
Visualization observer readout
Local Sidereal Time
07:58:14
Azimuth
Unknown
Elevation
Unknown
Doppler factor
Unknown
Orbital elements
Apogee altitude
774.964 km
Perigee altitude
760.23 km
Semi-major axis
7,145.734 km
Eccentricity
0.00103
Inclination
98.4014°
RAAN
275.4023°
Arg. of periapsis
97.6018°
True anomaly
262.51685°
Mean anomaly
262.634°
Eccentric anomaly
262.57542°
Mean motion
3.59313 °/min
Orbital period
100.19 mins
BSTAR
0.00013726
Loading maneuver chart data...
Computing Atmospheric mass density...
Loading historical data...
Loading historical data...
Loading historical data...
Loading historical data...
Loading historical data...
Loading historical data...
Loading historical data...

Documentation

Showing up to 5 results
|